Погода в Старом Село

Украина / Сумская область     50°49′23″N   34°48′26″E
темп.,
°C
ветер,
м/с
пор.,
м/с
влажн.,
%
обл.,
%
осадки,
мм/ч
давл.,
гПа
погр.,
м
28 июля, ср
ср2800:00+20ююв22455 0.0 101819
03:00+19ююв334866 0.0 101730
06:00+19ю345395 0.0 101673
09:00+25ююз4644100 0.0 1016386
12:00+29ююз463697 0.0 10141002
15:00+29ююз3642100 0.1 1012335
18:00+24ссв2371100 1.4 1012141
21:00+20зюз11885 2.3 101214
29 июля, чт
чт2900:00+20зюз22935 0.3 101240
03:00+20зюз229042 0.3 101220
06:00+20юз22882 0.0 101123
09:00+25з226417 0.0 1011387
12:00+30зюз34395 0.0 10112447
15:00+32зсз45316 0.0 10092764
18:00+31зюз34330 0.0 10081836
21:00+26юз464897 0.0 1008101
30 июля, пт
пт3000:00+22юз3106814 0.0 1008215
03:00+19юз3483100 0.0 100868
06:00+19ююз249015 0.5 1008127
09:00+23сз347798 0.6 1008546
12:00+27зсз445555 0.0 10081357
15:00+29ссз554460 0.0 10082090
18:00+25ссз3658100 0.0 1008220
21:00+23зсз226387 0.0 100927
31 июля, сб
сб3100:00+23ссз3656100 0.0 1010145
03:00+20с22662 0.0 101013
06:00+19сз116915 0.0 101111
09:00+26юз33460 0.0 1011512
12:00+30з44342 0.0 10112232
15:00+31зсз33295 0.0 10102359
18:00+31з22290 0.0 10102213
21:00+24юв11403 0.0 101011
1 августа, вс
вс100:00+22ююв22460 0.0 101015
03:00+20ю22540 0.0 101023
06:00+20ю35570 0.0 100975
09:00+27ююз694097 0.0 1009544
12:00+31зюз6834100 0.0 10091956
15:00+31з573887 0.0 10092011
18:00+30зсз55420 0.0 10091688
21:00+24с22600 0.4 100919